Time,TemperatureF,DewpointF,PressureIn,WindDirection,WindDirectionDegrees,WindSpeedMPH,WindSpeedGustMPH,Humidity,HourlyPrecipIn,Conditions,Clouds,dailyrainin,SoftwareType,DateUTC
2013-04-26 00:13:00,44.8,37.0,30.32,ENE,65,0.0,0.0,73,0.00,,,0.00,weatherlink.com 1.10,2013-04-26 04:13:00,
2013-04-26 00:29:00,44.1,37.0,30.31,ENE,65,0.0,0.0,75,0.00,,,0.00,weatherlink.com 1.10,2013-04-26 04:29:00,
2013-04-26 00:44:00,43.2,37.0,30.32,ENE,65,0.0,0.0,78,0.00,,,0.00,weatherlink.com 1.10,2013-04-26 04:44:00,
2013-04-26 00:59:00,42.3,37.0,30.32,ENE,65,0.0,0.0,81,0.00,,,0.00,weatherlink.com 1.10,2013-04-26 04:59:00,
2013-04-26 01:14:00,41.6,37.0,30.32,ENE,64,0.0,0.0,82,0.00,,,0.00,weatherlink.com 1.10,2013-04-26 05:14:00,
2013-04-26 01:29:00,41.3,37.0,30.32,ENE,65,0.0,0.0,84,0.00,,,0.00,weatherlink.com 1.10,2013-04-26 05:29:00,
2013-04-26 01:44:00,40.7,36.0,30.32,ENE,65,0.0,0.0,84,0.00,,,0.00,weatherlink.com 1.10,2013-04-26 05:44:00,
2013-04-26 01:59:00,40.2,36.0,30.31,ENE,64,0.0,0.0,86,0.00,,,0.00,weatherlink.com 1.10,2013-04-26 05:59:00,
2013-04-26 02:14:00,40.0,37.0,30.31,ENE,65,0.0,0.0,87,0.00,,,0.00,weatherlink.com 1.10,2013-04-26 06:14:00,
2013-04-26 02:29:00,39.7,37.0,30.31,ENE,65,0.0,0.0,88,0.00,,,0.00,weatherlink.com 1.10,2013-04-26 06:29:00,
2013-04-26 02:44:00,39.3,36.0,30.31,ENE,65,0.0,0.0,88,0.00,,,0.00,weatherlink.com 1.10,2013-04-26 06:44:00,
2013-04-26 02:59:00,38.9,36.0,30.31,ENE,65,0.0,1.0,89,0.00,,,0.00,weatherlink.com 1.10,2013-04-26 06:59:00,
2013-04-26 03:14:00,38.5,36.0,30.31,ENE,65,0.0,0.0,90,0.00,,,0.00,weatherlink.com 1.10,2013-04-26 07:14:00,
2013-04-26 03:29:00,38.3,36.0,30.31,ENE,65,0.0,0.0,90,0.00,,,0.00,weatherlink.com 1.10,2013-04-26 07:29:00,
2013-04-26 03:59:00,37.8,36.0,30.31,ENE,65,0.0,0.0,91,0.00,,,0.00,weatherlink.com 1.10,2013-04-26 07:59:00,
2013-04-26 04:14:00,37.7,36.0,30.31,ENE,65,0.0,0.0,92,0.00,,,0.00,weatherlink.com 1.10,2013-04-26 08:14:00,
2013-04-26 04:29:00,37.9,36.0,30.31,ENE,65,0.0,0.0,92,0.00,,,0.00,weatherlink.com 1.10,2013-04-26 08:29:00,
2013-04-26 04:44:00,37.6,36.0,30.31,ENE,64,0.0,0.0,92,0.00,,,0.00,weatherlink.com 1.10,2013-04-26 08:44:00,
2013-04-26 04:59:00,37.3,35.0,30.31,ENE,64,0.0,0.0,92,0.00,,,0.00,weatherlink.com 1.10,2013-04-26 08:59:00,
2013-04-26 05:14:00,37.3,35.0,30.32,ENE,65,0.0,0.0,92,0.00,,,0.00,weatherlink.com 1.10,2013-04-26 09:14:00,
2013-04-26 05:29:00,37.1,35.0,30.33,ENE,64,0.0,0.0,92,0.00,,,0.00,weatherlink.com 1.10,2013-04-26 09:29:00,
2013-04-26 05:44:00,36.8,35.0,30.33,ENE,65,0.0,0.0,92,0.00,,,0.00,weatherlink.com 1.10,2013-04-26 09:44:00,
2013-04-26 05:59:00,36.5,34.0,30.33,ENE,65,0.0,0.0,92,0.00,,,0.00,weatherlink.com 1.10,2013-04-26 09:59:00,
2013-04-26 06:14:00,36.4,35.0,30.33,ENE,64,0.0,0.0,93,0.00,,,0.00,weatherlink.com 1.10,2013-04-26 10:14:00,
2013-04-26 06:29:00,36.3,35.0,30.34,ENE,65,0.0,0.0,93,0.00,,,0.00,weatherlink.com 1.10,2013-04-26 10:29:00,
2013-04-26 06:44:00,36.3,35.0,30.33,ENE,65,0.0,0.0,93,0.00,,,0.00,weatherlink.com 1.10,2013-04-26 10:44:00,
2013-04-26 06:59:00,36.6,35.0,30.34,ENE,65,0.0,0.0,93,0.00,,,0.00,weatherlink.com 1.10,2013-04-26 10:59:00,
2013-04-26 07:14:00,37.6,36.0,30.33,ENE,65,0.0,0.0,94,0.00,,,0.00,weatherlink.com 1.10,2013-04-26 11:14:00,
2013-04-26 07:29:00,38.4,37.0,30.34,ENE,65,0.0,0.0,95,0.00,,,0.00,weatherlink.com 1.10,2013-04-26 11:29:00,
2013-04-26 07:44:00,39.5,38.0,30.35,ENE,65,0.0,0.0,95,0.00,,,0.00,weatherlink.com 1.10,2013-04-26 11:44:00,
2013-04-26 08:14:00,42.8,42.0,30.36,SSE,153,0.0,0.0,95,0.00,,,0.00,weatherlink.com 1.10,2013-04-26 12:14:00,
2013-04-26 08:29:00,44.7,43.0,30.36,West,280,0.0,1.0,95,0.00,,,0.00,weatherlink.com 1.10,2013-04-26 12:29:00,
2013-04-26 08:44:00,47.4,43.0,30.35,West,281,0.0,1.0,86,0.00,,,0.00,weatherlink.com 1.10,2013-04-26 12:44:00,
2013-04-26 09:00:00,51.2,42.0,30.34,SSE,150,0.0,5.0,71,0.00,,,0.00,weatherlink.com 1.10,2013-04-26 13:00:00,
2013-04-26 09:15:00,52.3,42.0,30.34,SSE,165,0.0,1.0,68,0.00,,,0.00,weatherlink.com 1.10,2013-04-26 13:15:00,
2013-04-26 09:30:00,56.3,42.0,30.35,SSW,198,1.0,2.0,60,0.00,,,0.00,weatherlink.com 1.10,2013-04-26 13:30:00,
2013-04-26 09:45:00,58.4,43.0,30.35,North,360,0.0,3.0,56,0.00,,,0.00,weatherlink.com 1.10,2013-04-26 13:45:00,
2013-04-26 10:15:00,59.6,42.0,30.35,SSE,153,0.0,6.0,53,0.00,,,0.00,weatherlink.com 1.10,2013-04-26 14:15:00,
2013-04-26 10:30:00,62.2,43.0,30.36,SSE,160,0.0,4.0,50,0.00,,,0.00,weatherlink.com 1.10,2013-04-26 14:30:00,
2013-04-26 10:45:00,61.1,42.0,30.35,SSE,156,2.0,6.0,50,0.00,,,0.00,weatherlink.com 1.10,2013-04-26 14:45:00,
2013-04-26 10:59:00,62.9,44.0,30.35,SE,130,0.0,5.0,50,0.00,,,0.00,weatherlink.com 1.10,2013-04-26 14:59:00,
2013-04-26 11:15:00,64.9,43.0,30.34,East,96,1.0,5.0,46,0.00,,,0.00,weatherlink.com 1.10,2013-04-26 15:15:00,
2013-04-26 11:30:00,65.8,43.0,30.34,ESE,122,0.0,6.0,44,0.00,,,0.00,weatherlink.com 1.10,2013-04-26 15:30:00,
2013-04-26 12:00:00,67.0,44.0,30.34,WNW,302,1.0,8.0,43,0.00,,,0.00,weatherlink.com 1.10,2013-04-26 16:00:00,
2013-04-26 12:45:00,70.0,42.0,30.35,SE,143,2.0,5.0,36,0.00,,,0.00,weatherlink.com 1.10,2013-04-26 16:45:00,
2013-04-26 13:00:00,69.7,40.0,30.35,ESE,115,2.0,7.0,34,0.00,,,0.00,weatherlink.com 1.10,2013-04-26 17:00:00,
2013-04-26 13:15:00,69.8,42.0,30.34,WNW,297,1.0,5.0,36,0.00,,,0.00,weatherlink.com 1.10,2013-04-26 17:15:00,
2013-04-26 13:45:00,70.5,42.0,30.32,SSE,148,0.0,6.0,36,0.00,,,0.00,weatherlink.com 1.10,2013-04-26 17:45:00,
2013-04-26 14:15:00,71.9,43.0,30.31,SSE,160,3.0,7.0,36,0.00,,,0.00,weatherlink.com 1.10,2013-04-26 18:15:00,
2013-04-26 14:30:00,70.8,42.0,30.29,SE,132,0.0,7.0,36,0.00,,,0.00,weatherlink.com 1.10,2013-04-26 18:30:00,
2013-04-26 14:45:00,70.7,44.0,30.29,NW,313,1.0,3.0,38,0.00,,,0.00,weatherlink.com 1.10,2013-04-26 18:45:00,
2013-04-26 15:00:00,70.4,43.0,30.29,ESE,118,0.0,4.0,37,0.00,,,0.00,weatherlink.com 1.10,2013-04-26 19:00:00,
2013-04-26 15:15:00,70.6,43.0,30.28,East,101,0.0,4.0,37,0.00,,,0.00,weatherlink.com 1.10,2013-04-26 19:15:00,
2013-04-26 15:45:00,71.3,44.0,30.27,SSE,151,0.0,6.0,37,0.00,,,0.00,weatherlink.com 1.10,2013-04-26 19:45:00,
2013-04-26 16:01:00,71.4,43.0,30.26,SE,142,3.0,6.0,36,0.00,,,0.00,weatherlink.com 1.10,2013-04-26 20:01:00,
2013-04-26 16:16:00,71.3,44.0,30.24,ESE,107,2.0,6.0,38,0.00,,,0.00,weatherlink.com 1.10,2013-04-26 20:16:00,
2013-04-26 16:31:00,71.3,44.0,30.24,SE,141,0.0,6.0,37,0.00,,,0.00,weatherlink.com 1.10,2013-04-26 20:31:00,
2013-04-26 16:46:00,72.3,44.0,30.23,SE,134,0.0,4.0,37,0.00,,,0.00,weatherlink.com 1.10,2013-04-26 20:46:00,
2013-04-26 17:01:00,72.2,45.0,30.23,SSE,157,3.0,4.0,38,0.00,,,0.00,weatherlink.com 1.10,2013-04-26 21:01:00,
2013-04-26 17:16:00,71.7,45.0,30.23,SE,128,0.0,3.0,38,0.00,,,0.00,weatherlink.com 1.10,2013-04-26 21:16:00,
2013-04-26 17:31:00,71.3,46.0,30.23,SE,146,0.0,2.0,40,0.00,,,0.00,weatherlink.com 1.10,2013-04-26 21:31:00,
2013-04-26 17:46:00,71.0,47.0,30.25,SSE,147,0.0,2.0,42,0.00,,,0.00,weatherlink.com 1.10,2013-04-26 21:46:00,
2013-04-26 18:01:00,70.2,45.0,30.25,SE,126,0.0,4.0,41,0.00,,,0.00,weatherlink.com 1.10,2013-04-26 22:01:00,
2013-04-26 18:16:00,69.1,44.0,30.26,SSE,150,2.0,4.0,41,0.00,,,0.00,weatherlink.com 1.10,2013-04-26 22:16:00,
2013-04-26 18:31:00,68.3,45.0,30.29,North,355,0.0,2.0,43,0.00,,,0.00,weatherlink.com 1.10,2013-04-26 22:31:00,
2013-04-26 18:46:00,67.6,45.0,30.32,SE,135,0.0,2.0,44,0.00,,,0.00,weatherlink.com 1.10,2013-04-26 22:46:00,
2013-04-26 19:16:00,66.7,44.0,30.30,SSE,162,1.0,3.0,44,0.00,,,0.00,weatherlink.com 1.10,2013-04-26 23:16:00,
2013-04-26 19:31:00,66.3,44.0,30.30,SSE,161,0.0,1.0,45,0.00,,,0.00,weatherlink.com 1.10,2013-04-26 23:31:00,
2013-04-26 19:46:00,65.6,44.0,30.29,SE,130,0.0,5.0,46,0.00,,,0.00,weatherlink.com 1.10,2013-04-26 23:46:00,
2013-04-26 20:16:00,64.5,44.0,30.23,SE,138,1.0,6.0,48,0.00,,,0.00,weatherlink.com 1.10,2013-04-27 00:16:00,
2013-04-26 20:31:00,64.0,44.0,30.22,ESE,108,0.0,3.0,48,0.00,,,0.00,weatherlink.com 1.10,2013-04-27 00:31:00,
2013-04-26 20:46:00,63.4,43.0,30.22,SE,141,0.0,2.0,48,0.00,,,0.00,weatherlink.com 1.10,2013-04-27 00:46:00,
2013-04-26 21:01:00,63.1,43.0,30.24,SE,129,0.0,4.0,49,0.00,,,0.00,weatherlink.com 1.10,2013-04-27 01:01:00,
2013-04-26 21:16:00,62.4,44.0,30.25,SE,129,0.0,0.0,52,0.00,,,0.00,weatherlink.com 1.10,2013-04-27 01:16:00,
2013-04-26 21:31:00,61.3,48.0,30.26,SE,129,0.0,0.0,61,0.00,,,0.00,weatherlink.com 1.10,2013-04-27 01:31:00,
2013-04-26 21:46:00,59.9,49.0,30.28,SE,129,0.0,0.0,67,0.00,,,0.00,weatherlink.com 1.10,2013-04-27 01:46:00,
2013-04-26 22:01:00,58.6,50.0,30.29,SE,129,1.0,1.0,73,0.00,,,0.00,weatherlink.com 1.10,2013-04-27 02:01:00,
2013-04-26 22:16:00,56.4,51.0,30.29,SE,129,0.0,1.0,82,0.01,,,0.01,weatherlink.com 1.10,2013-04-27 02:16:00,
2013-04-26 22:46:00,54.1,51.0,30.32,SE,129,0.0,1.0,90,0.07,,,0.07,weatherlink.com 1.10,2013-04-27 02:46:00,
2013-04-26 23:01:00,53.9,51.0,30.31,SE,129,0.0,0.0,91,0.09,,,0.09,weatherlink.com 1.10,2013-04-27 03:01:00,
2013-04-26 23:16:00,53.7,52.0,30.31,SE,129,0.0,1.0,92,0.08,,,0.09,weatherlink.com 1.10,2013-04-27 03:16:00,
2013-04-26 23:31:00,53.5,51.0,30.29,SE,129,0.0,1.0,92,0.06,,,0.11,weatherlink.com 1.10,2013-04-27 03:31:00,
2013-04-26 23:46:00,53.1,51.0,30.28,SE,129,0.0,0.0,91,0.06,,,0.13,weatherlink.com 1.10,2013-04-27 03:46:00,